Temperature
22 22 21 21 23 25 27 29 30 30 30 30 29 29 28 27 26 24 23 22 21 21 21 20 20 20 19 19 19 19 19 19 19 19 19 19 19 19 19 19 19 19 19 19 18 18 18 18 18
22 21 22 23 24 26 28 30 30 30 30 30 29 29 28 26 25 24 23 22 22 21 20 20 20 20 19 19 19 19 19 19 19 19 19 19 19 19 19 19 19 18 18 18 18 18 18 18 18
22 22 24 25 26 28 29 30 30 31 30 30 29 28 27 25 25 23 23 23 22 21 20 20 20 20 19 19 19 19 19 19 19 19 19 19 19 19 19 18 18 18 18 18 18 18 18 18 18
22 24 25 28 29 30 30 31 31 31 30 30 29 27 26 25 24 23 23 23 22 21 20 21 20 20 20 19 19 19 19 19 19 19 19 19 19 19 19 18 18 18 18 18 18 18 18 18 18
24 25 27 29 30 31 32 32 31 31 30 30 28 27 25 24 24 24 23 23 22 21 20 21 20 20 20 19 19 19 19 19 19 19 19 19 19 19 19 18 18 18 18 18 18 18 18 18 18
25 28 28 29 30 31 32 32 31 31 30 30 28 27 25 24 24 24 23 23 22 21 20 21 20 20 20 20 19 19 19 19 19 19 19 19 19 19 19 19 18 19 19 18 18 18 18 18 18
26 28 29 30 30 31 32 32 31 31 30 30 29 27 25 24 24 24 23 23 22 22 21 20 20 20 20 20 20 19 19 19 19 19 19 19 19 19 19 19 19 19 19 19 19 19 19 19 19
28 29 30 31 30 31 32 32 31 31 30 29 29 27 25 24 24 24 23 23 22 22 21 21 20 20 20 20 20 20 19 19 19 19 19 19 19 19 19 19 19 19 19 19 19 19 19 19 19
30 30 30 31 31 32 32 32 31 30 30 29 28 27 25 24 24 24 23 23 22 22 21 21 20 20 20 20 19 20 19 19 19 19 19 19 19 19 19 19 19 19 19 19 19 19 19 19 19
31 30 31 32 33 32 32 32 31 30 30 29 27 26 25 25 24 24 23 23 22 22 21 21 21 20 20 20 20 19 19 19 19 19 19 19 19 19 19 19 19 19 19 19 19 19 19 18 18
33 31 32 33 33 32 32 32 31 30 30 29 27 26 25 25 24 24 24 23 22 22 21 21 20 20 20 20 20 20 19 19 19 19 19 19 19 19 19 19 19 19 19 19 18 18 19 18 18
33 33 33 33 32 32 32 32 31 31 30 29 27 27 26 25 25 24 24 23 22 22 21 21 20 20 20 20 20 20 20 19 19 19 19 19 19 19 19 19 19 19 18 18 19 19 19 18 18
33 33 33 33 32 32 32 32 31 30 29 29 28 27 26 26 25 24 23 23 22 21 21 20 20 20 19 20 20 19 19 19 19 19 19 19 19 19 19 19 19 19 18 18 19 19 19 19 19
33 33 32 33 32 32 32 32 31 30 29 28 28 27 26 26 25 24 23 22 22 21 21 20 20 20 20 20 20 19 19 19 19 19 19 19 19 19 19 18 19 19 19 19 19 19 19 19 19
33 32 32 33 33 32 32 31 31 30 29 29 28 27 26 26 25 24 23 23 22 21 21 20 20 20 20 19 19 19 19 19 19 19 19 19 19 19 19 18 19 19 19 19 18 19 19 19 19
33 31 31 33 33 33 32 30 31 30 30 29 28 27 26 25 25 24 23 22 22 21 21 20 20 20 20 19 19 19 19 19 19 19 19 19 19 18 18 18 18 18 18 18 18 19 19 19 19
32 31 31 32 34 33 32 30 31 31 30 29 28 27 26 25 24 24 23 22 21 21 20 20 20 19 19 19 19 19 19 19 19 19 19 19 18 18 18 18 18 18 18 18 18 18 18 19 19
31 31 31 32 33 33 33 32 32 31 31 30 29 27 26 25 24 23 23 22 21 21 20 20 20 19 19 19 19 19 19 19 19 19 19 18 18 18 18 18 18 18 18 18 18 18 18 18 19
32 31 31 32 34 33 32 32 32 32 31 30 29 28 26 25 24 23 23 22 21 21 20 20 20 19 19 19 19 19 19 19 18 19 18 18 18 18 18 18 18 18 18 18 18 18 18 18 18
33 32 32 33 33 33 32 32 32 32 31 30 29 28 27 25 24 23 23 22 21 20 20 20 19 19 19 19 19 19 19 19 18 18 18 18 18 18 18 18 18 18 18 18 18 18 18 18 18
33 33 33 32 33 33 32 30 31 31 31 30 30 28 27 26 25 24 23 22 21 21 20 20 19 19 19 19 19 19 19 19 18 18 18 18 18 18 18 18 18 18 17 17 18 18 18 18 18
32 34 34 33 32 30 31 29 30 30 30 30 30 29 28 27 26 24 23 22 22 21 20 20 19 19 19 19 19 19 19 19 18 18 18 18 18 18 18 18 18 17 17 17 17 17 17 17 17
33 34 33 33 32 31 31 29 28 30 29 30 30 29 28 27 26 25 24 23 22 22 21 20 20 19 19 19 19 19 18 18 18 18 18 18 18 18 17 17 17 17 17 17 17 17 17 17 17
34 34 33 32 31 29 30 29 28 29 29 29 30 29 28 27 26 25 24 23 23 22 21 20 20 20 19 19 19 19 18 18 18 18 18 18 18 17 17 17 17 17 17 17 17 17 17 17 17
34 32 30 29 29 29 30 30 29 30 30 30 29 28 28 27 26 25 24 23 23 22 21 21 20 20 19 19 19 19 18 18 18 18 18 18 18 17 17 17 17 17 17 17 16 16 16 16 16
33 32 30 29 29 30 30 29 29 31 30 30 29 28 28 27 26 25 25 24 23 22 21 21 20 20 20 19 19 19 18 18 18 18 18 17 17 17 17 17 17 17 17 16 16 16 16 16 16
33 33 33 32 31 30 29 29 29 30 30 29 29 28 27 27 26 25 24 24 23 22 21 21 20 20 19 19 19 18 18 18 18 17 17 17 17 17 17 17 17 17 16 16 16 16 16 16 16
34 33 33 31 29 29 29 29 29 29 29 29 28 28 27 27 26 25 24 24 23 22 22 21 20 20 19 19 18 18 18 18 17 17 17 17 17 17 16 16 16 16 16 16 16 16 15 15 15
32 32 31 31 30 29 28 29 30 29 29 29 28 28 28 27 26 25 24 23 23 22 22 21 20 20 19 19 18 18 18 17 17 17 17 17 17 16 16 16 16 16 16 16 15 15 15 15 15
33 32 32 30 29 29 29 28 31 30 30 29 28 28 27 27 26 25 24 23 23 22 21 21 20 20 19 19 18 18 18 17 17 17 17 16 16 16 16 16 16 15 16 15 15 15 15 15 14
Wind_Speed
9 10 9 4 3 1 8 11 12 12 12 12 12 12 16 15 10 8 6 10 12 13 12 13 11 9 9 9 8 8 9 9 8 8 8 7 7 6 7 7 7 7 7 7 7 7 8 8 8
9 10 7 3 2 4 9 11 13 13 11 10 13 15 16 14 12 9 8 9 12 13 12 12 11 10 9 8 7 8 9 9 9 9 8 7 7 6 6 6 6 6 6 7 7 8 8 8 8
10 10 5 3 3 8 10 11 11 11 10 10 13 15 12 10 11 8 8 10 12 13 13 13 12 11 9 7 7 8 9 9 9 9 7 7 7 6 6 5 5 5 5 6 7 8 9 9 9
6 5 4 1 8 10 10 10 10 11 11 11 12 11 12 11 9 9 10 11 12 12 14 14 12 11 9 9 9 10 9 9 9 8 7 7 6 6 5 4 4 3 4 6 7 9 10 10 10
7 4 2 4 10 11 9 10 11 11 11 13 14 14 13 12 12 10 9 11 11 12 13 13 13 11 10 11 11 10 9 9 8 8 7 6 6 6 5 4 3 3 4 5 7 8 10 9 10
4 3 1 6 10 10 10 10 11 11 11 11 14 14 10 10 10 9 9 10 11 12 12 12 13 11 10 11 10 9 9 8 7 7 6 6 5 5 5 3 3 3 4 5 6 8 8 9 9
6 4 2 8 8 9 9 9 11 11 11 11 12 12 9 10 10 10 10 9 10 11 12 10 11 10 10 11 10 9 9 8 7 6 5 5 5 4 4 3 3 4 4 5 6 6 6 7 8
5 4 4 7 8 10 9 10 10 11 11 10 10 9 9 9 9 10 9 9 9 9 10 8 9 9 9 10 10 9 9 7 7 5 4 5 5 4 4 4 3 4 5 5 5 5 5 6 7
5 2 5 6 8 8 9 9 10 11 12 13 14 13 12 12 10 10 9 8 8 8 7 7 7 7 6 8 10 9 9 7 6 5 5 4 4 4 5 4 5 4 4 4 5 5 6 6 7
2 3 5 6 7 8 8 8 7 9 10 12 13 14 13 11 9 9 9 8 8 7 7 7 7 6 4 4 7 5 5 6 5 4 4 3 2 2 3 6 6 5 5 5 5 6 7 7 5
1 4 3 6 8 8 7 7 8 9 9 10 11 12 11 10 8 8 9 8 8 7 6 7 7 5 4 4 4 3 3 4 3 3 3 2 1 1 2 3 4 5 5 3 3 4 4 4 3
2 3 3 5 6 6 6 7 9 10 10 11 12 11 10 10 8 8 9 8 8 7 7 7 7 6 5 4 3 2 2 2 2 3 2 2 1 1 1 1 0 2 2 2 2 2 2 2 3
2 2 2 3 4 4 6 7 8 10 10 12 12 11 10 9 9 9 9 8 8 7 7 8 7 6 4 4 2 3 2 2 3 3 2 2 2 1 2 1 0 1 1 2 1 1 0 1 1
1 2 2 2 3 4 5 5 7 8 9 11 10 9 8 8 9 9 9 8 8 6 7 7 7 6 4 3 1 1 1 2 3 3 3 3 2 2 2 1 0 1 0 1 1 1 1 0 0
3 2 3 4 4 5 5 3 6 8 8 10 10 8 7 7 8 7 9 8 8 7 7 6 6 6 4 3 1 1 1 3 2 3 3 3 2 1 1 0 0 0 0 1 1 1 1 2 1
6 5 4 5 6 5 5 5 6 8 7 9 9 9 8 6 6 7 9 8 8 8 7 4 4 6 5 2 1 1 2 2 2 3 3 2 2 2 1 1 1 0 0 0 1 0 1 0 0
6 4 4 4 5 5 4 5 8 7 7 8 8 10 9 7 6 8 9 8 8 8 6 4 5 5 4 2 1 1 1 2 2 3 3 2 2 2 1 1 1 1 1 1 1 1 0 0 0
5 4 3 3 2 4 5 6 8 8 7 8 9 9 10 9 7 7 8 9 8 8 7 5 4 4 2 2 2 1 1 2 2 2 2 2 2 2 1 0 1 1 1 2 2 1 0 1 1
6 5 4 2 2 2 4 5 6 7 7 8 9 9 10 10 9 8 8 8 8 8 7 6 4 4 2 1 1 1 1 1 2 2 2 2 2 2 2 2 1 1 2 2 2 1 1 1 1
7 7 4 3 2 3 2 3 4 5 7 7 9 10 11 11 10 9 8 8 8 8 7 6 4 4 2 1 0 1 1 1 2 2 2 2 2 2 1 1 2 2 1 1 2 2 2 2 1
8 7 6 4 3 4 4 4 5 6 7 7 8 10 11 11 11 10 8 7 8 8 7 6 5 4 3 2 1 1 1 1 2 2 2 2 2 2 3 3 3 3 1 1 1 2 2 2 1
8 7 7 5 5 6 6 4 5 8 7 7 7 8 9 11 11 11 10 8 8 8 8 6 5 4 3 2 1 1 2 2 1 1 2 2 1 1 1 2 2 3 3 2 2 2 2 2 2
7 7 9 10 8 8 5 2 2 6 6 7 8 8 9 10 11 11 11 9 9 9 8 7 6 5 4 3 2 0 1 1 1 2 2 2 1 1 2 2 2 2 2 3 3 3 3 2 2
7 8 10 10 7 8 6 3 3 4 8 7 8 8 8 9 10 10 11 10 8 8 8 8 7 5 4 3 2 1 1 1 1 1 1 1 2 2 2 2 1 1 2 2 2 2 2 3 3
9 8 5 6 5 6 5 3 4 7 8 8 9 9 8 8 10 9 10 9 8 8 8 8 8 6 4 3 2 2 1 1 1 0 0 0 1 2 2 2 1 1 1 1 1 1 2 2 3
8 8 6 7 7 5 2 0 4 7 8 9 8 8 9 8 9 9 9 9 8 8 7 8 7 6 5 4 2 2 1 1 1 0 0 1 1 1 2 1 1 1 1 1 1 1 1 1 2
7 8 10 9 9 6 1 4 5 6 7 8 9 8 8 9 9 9 8 8 8 8 7 7 7 5 5 4 4 3 2 1 1 0 1 1 1 1 2 1 1 1 1 1 1 1 1 1 2
9 10 8 6 6 6 3 4 5 6 6 7 8 9 10 10 9 9 8 7 7 7 7 7 7 6 5 4 3 3 3 2 2 1 2 2 2 3 2 2 1 1 1 1 1 1 1 2 2
6 7 6 6 6 7 5 2 5 8 7 7 7 7 7 8 9 9 8 7 6 6 7 6 6 6 5 5 3 3 3 3 2 2 2 2 2 2 2 2 2 1 1 1 1 1 2 2 2
7 8 7 6 5 7 6 2 1 4 7 8 7 7 8 8 8 8 8 7 7 6 6 6 6 6 6 5 4 3 3 3 2 2 1 1 1 1 1 1 1 1 2 2 2 3 3 2 3
Wind_Direction
194 206 214 237 263 257 57 59 61 61 58 54 55 58 59 55 61 84 94 95 101 104 105 102 95 91 87 91 99 107 109 113 116 117 118 121 123 128 134 142 145 147 155 159 160 160 161 166 167
218 218 222 247 280 65 62 64 64 61 62 64 65 66 65 63 74 91 93 97 104 104 102 100 97 94 91 90 100 110 114 116 119 121 118 119 120 126 134 140 150 160 167 168 168 168 169 169 172
246 244 249 221 59 62 66 67 71 68 62 67 71 63 62 69 77 92 107 105 102 102 104 106 103 98 94 92 106 114 115 117 119 122 119 116 115 117 119 130 144 159 172 172 171 172 176 175 177
241 233 236 218 70 69 72 78 79 74 68 65 74 74 66 64 84 101 108 105 105 109 108 111 110 103 94 88 106 109 113 116 116 118 120 118 117 119 118 121 129 152 173 180 181 184 179 181 184
245 265 259 76 75 75 73 75 76 75 69 69 79 84 77 76 92 102 104 105 103 106 111 116 118 111 100 93 99 102 105 108 112 113 113 115 113 113 110 108 106 123 150 163 174 178 178 184 190
268 259 299 76 79 77 71 70 73 75 76 80 91 91 89 96 99 103 98 97 102 108 112 120 124 118 111 107 104 104 107 106 106 111 112 111 110 113 114 108 95 115 139 156 164 171 181 189 195
258 291 50 78 87 82 76 69 74 77 72 70 85 90 100 103 105 104 100 96 98 106 112 125 131 131 127 119 114 113 114 117 118 118 122 126 128 128 125 115 100 117 135 146 156 166 179 194 204
266 306 27 74 84 84 83 79 79 81 75 76 79 92 105 115 114 109 106 100 96 99 111 124 128 134 139 134 131 132 131 133 136 139 144 151 159 157 155 139 130 124 132 143 156 165 178 190 203
253 284 56 66 77 85 87 89 86 83 82 74 73 92 110 120 117 117 113 104 97 94 99 107 109 114 127 133 136 148 146 148 152 161 175 179 180 177 170 149 149 154 156 162 169 178 187 199 210
211 67 68 74 83 87 86 89 95 95 90 87 87 96 109 119 122 122 114 111 104 104 104 96 92 96 108 108 125 141 139 144 155 144 157 168 176 138 127 144 161 172 186 191 193 199 204 212 213
63 77 70 75 83 90 91 91 92 94 96 102 108 114 121 127 125 117 111 109 109 113 101 101 94 90 86 79 105 107 112 127 129 118 120 123 102 103 107 140 172 190 197 196 182 205 214 205 196
66 70 68 83 82 88 90 87 86 83 88 107 114 119 125 129 120 117 111 110 113 110 101 93 91 82 67 61 68 94 97 109 96 97 86 84 79 49 81 92 130 192 177 167 160 177 203 192 194
114 81 77 102 105 92 90 82 88 94 99 107 115 121 124 124 124 115 113 112 113 111 106 97 94 87 79 64 25 71 74 84 90 89 70 69 73 29 45 55 81 253 167 139 113 80 215 206 213
339 147 180 165 136 123 110 106 107 109 115 114 113 116 124 119 118 116 114 115 115 114 104 108 108 105 97 93 54 34 80 95 85 83 62 44 52 53 22 51 25 358 102 135 146 163 211 274 244
261 251 223 204 186 141 130 125 124 133 132 124 121 115 108 109 115 117 123 123 123 116 101 107 120 112 108 108 133 103 80 90 87 85 85 50 16 53 56 14 100 70 348 173 192 187 201 191 201
243 237 230 204 199 175 181 131 140 149 145 132 132 131 119 105 110 113 115 114 112 108 101 94 102 110 115 106 55 45 66 78 78 70 82 70 25 20 44 356 9 0 192 252 225 180 251 111 225
251 234 231 225 194 174 189 138 157 161 145 138 141 134 129 118 106 114 120 120 114 108 108 102 85 99 114 118 121 111 76 76 72 69 56 44 44 21 64 21 351 322 343 308 313 96 314 243 247
280 292 249 247 196 198 165 148 158 159 150 148 140 133 132 125 119 121 125 124 121 115 111 106 97 96 112 125 112 80 87 89 89 80 72 45 28 27 351 94 350 350 25 9 14 356 331 282 274
258 260 266 239 239 239 157 159 164 162 163 152 143 141 135 134 132 130 131 126 123 118 116 113 112 104 98 97 130 145 134 129 115 111 89 66 23 6 354 2 7 22 38 3 353 329 290 262 278
277 275 254 249 240 255 189 182 165 162 153 153 148 145 144 142 138 136 131 131 130 123 122 123 122 125 133 128 125 139 125 132 101 78 94 77 45 0 9 26 356 22 53 3 347 332 321 302 277
272 276 286 291 303 264 203 222 177 154 154 152 150 146 146 149 146 142 141 141 137 134 137 140 137 133 137 132 137 114 116 82 85 102 96 82 60 34 14 19 2 358 4 23 335 341 312 309 296
275 291 298 286 267 263 227 237 180 161 170 161 151 146 148 148 146 147 148 152 150 144 142 133 135 137 136 134 103 100 124 117 100 104 102 107 86 63 43 27 9 3 8 28 355 18 330 323 306
279 298 290 278 268 266 237 212 194 174 175 168 156 151 151 148 148 150 152 155 153 150 147 141 135 134 137 143 138 167 84 109 117 108 115 131 133 98 47 49 25 13 13 26 12 25 1 344 335
279 278 276 278 277 274 257 226 184 180 167 166 152 147 145 149 147 149 149 150 150 150 146 143 139 140 145 156 151 143 105 81 71 81 107 139 108 83 63 64 27 19 4 20 24 10 1 349 345
263 277 285 279 250 253 248 216 132 152 150 146 147 150 142 145 146 144 144 146 149 151 147 144 142 147 152 159 158 143 122 121 82 353 113 12 84 94 75 42 32 4 11 13 12 14 1 345 334
265 274 275 286 291 290 275 58 129 124 121 128 135 144 146 145 144 143 148 150 154 152 146 139 142 150 153 151 149 134 138 160 112 320 1 13 358 80 104 110 77 41 9 357 8 352 354 347 326
273 281 284 285 288 288 228 137 137 114 120 126 137 145 152 148 147 142 141 150 150 149 145 140 140 145 152 154 151 144 135 110 69 44 50 23 13 37 54 60 55 36 12 350 346 331 331 349 326
260 284 304 304 309 300 264 185 158 156 166 147 153 162 165 156 152 142 142 144 147 150 144 137 141 151 150 147 160 151 151 151 116 74 59 48 39 32 29 20 33 29 15 342 308 322 316 309 305
258 271 289 292 298 301 304 330 144 169 171 159 158 159 151 150 148 144 144 146 138 138 136 139 136 137 138 133 134 134 139 140 130 107 73 57 43 36 26 5 4 20 4 354 347 316 311 300 304
264 270 273 282 283 285 289 294 170 159 146 144 147 147 141 134 142 139 140 138 137 126 124 128 138 142 136 133 131 126 125 121 117 107 94 75 59 61 51 15 358 355 4 4 346 322 329 321 311
Height
1480 1481 1482 1485 1484 1481 1476 1466 1461 1462 1462 1464 1465 1466 1469 1473 1480 1491 1491 1489 1489 1489 1488 1488 1488 1488 1487 1487 1488 1489 1491 1492 1493 1495 1496 1498 1499 1500 1501 1503 1504 1506 1507 1508 1510 1511 1513 1515 1517
1480 1482 1486 1485 1484 1484 1478 1465 1464 1464 1465 1466 1467 1470 1473 1479 1483 1488 1490 1491 1491 1490 1490 1489 1489 1489 1488 1488 1489 1490 1492 1493 1494 1496 1497 1499 1500 1501 1502 1503 1504 1505 1506 1507 1509 1510 1512 1514 1516
1481 1484 1485 1481 1479 1479 1476 1465 1465 1465 1466 1467 1470 1474 1479 1484 1487 1489 1491 1492 1492 1492 1491 1491 1491 1490 1489 1487 1486 1490 1492 1494 1496 1497 1499 1500 1501 1502 1502 1503 1503 1504 1504 1505 1507 1508 1511 1513 1515
1483 1484 1481 1476 1475 1468 1466 1464 1464 1466 1468 1469 1472 1478 1484 1487 1489 1491 1492 1493 1493 1493 1493 1493 1493 1492 1490 1484 1482 1489 1493 1496 1497 1499 1500 1501 1501 1502 1503 1503 1502 1501 1501 1502 1504 1505 1509 1512 1515
1484 1482 1477 1474 1471 1465 1463 1463 1465 1467 1469 1472 1475 1482 1487 1490 1491 1492 1493 1494 1495 1495 1494 1495 1495 1494 1493 1490 1490 1493 1496 1497 1498 1500 1501 1502 1502 1503 1503 1502 1501 1499 1498 1499 1501 1504 1507 1511 1514
1483 1477 1479 1479 1472 1466 1464 1465 1467 1469 1471 1473 1477 1483 1489 1492 1493 1493 1494 1495 1496 1496 1496 1496 1497 1497 1496 1496 1496 1497 1498 1499 1500 1502 1503 1503 1504 1504 1504 1503 1501 1498 1498 1499 1501 1504 1507 1511 1513
1482 1476 1474 1471 1472 1469 1466 1467 1468 1471 1473 1475 1478 1484 1490 1493 1494 1495 1496 1497 1498 1498 1498 1498 1499 1499 1499 1499 1500 1500 1501 1501 1503 1504 1504 1505 1505 1505 1505 1504 1502 1500 1500 1501 1502 1505 1508 1511 1513
1477 1474 1472 1469 1472 1471 1467 1468 1471 1473 1475 1478 1479 1484 1490 1494 1495 1495 1497 1498 1499 1500 1500 1500 1501 1501 1501 1502 1502 1502 1503 1504 1505 1505 1506 1506 1506 1506 1506 1506 1504 1503 1502 1504 1505 1507 1509 1511 1513
1473 1475 1477 1471 1471 1469 1467 1469 1472 1474 1477 1480 1482 1486 1490 1494 1495 1496 1498 1499 1500 1501 1502 1502 1503 1503 1504 1504 1504 1504 1505 1506 1506 1507 1507 1508 1508 1508 1508 1508 1507 1506 1506 1507 1508 1510 1511 1513 1514
1469 1474 1472 1465 1465 1467 1468 1470 1472 1475 1478 1482 1486 1489 1492 1494 1495 1497 1498 1500 1501 1502 1503 1503 1504 1504 1505 1506 1506 1507 1507 1507 1508 1508 1508 1509 1509 1510 1510 1509 1509 1509 1509 1510 1511 1512 1513 1514 1515
1466 1469 1466 1464 1465 1467 1469 1471 1472 1476 1480 1483 1487 1490 1493 1494 1496 1497 1499 1500 1502 1503 1504 1505 1505 1505 1506 1507 1508 1508 1509 1509 1509 1509 1509 1510 1510 1510 1510 1510 1510 1510 1510 1511 1512 1512 1514 1515 1516
1466 1465 1465 1465 1467 1469 1470 1471 1473 1477 1481 1484 1487 1490 1493 1494 1496 1498 1499 1501 1503 1504 1505 1505 1506 1506 1507 1508 1508 1509 1510 1510 1510 1510 1510 1510 1511 1511 1511 1511 1511 1511 1512 1512 1513 1513 1515 1516 1516
1465 1466 1466 1467 1468 1470 1471 1473 1476 1479 1482 1485 1488 1490 1493 1495 1497 1498 1500 1502 1503 1504 1505 1506 1506 1507 1507 1508 1509 1510 1510 1511 1511 1510 1511 1511 1511 1511 1511 1511 1512 1512 1513 1513 1514 1515 1515 1516 1517
1465 1466 1467 1467 1468 1470 1471 1473 1477 1480 1483 1486 1488 1491 1493 1495 1497 1499 1500 1502 1504 1505 1506 1507 1507 1507 1508 1508 1509 1510 1511 1511 1511 1511 1511 1511 1512 1511 1512 1512 1512 1512 1513 1514 1514 1515 1515 1516 1516
1466 1467 1468 1466 1466 1468 1471 1476 1476 1480 1482 1485 1488 1492 1494 1496 1498 1500 1501 1502 1504 1505 1506 1507 1508 1508 1508 1509 1510 1511 1512 1512 1512 1512 1511 1511 1512 1512 1512 1512 1512 1513 1513 1514 1514 1515 1515 1515 1516
1465 1470 1475 1465 1463 1465 1472 1482 1476 1478 1481 1484 1487 1490 1494 1497 1498 1500 1501 1503 1504 1505 1506 1507 1508 1508 1508 1509 1510 1511 1512 1512 1512 1512 1512 1512 1512 1512 1512 1512 1512 1513 1513 1513 1514 1514 1515 1515 1516
1469 1477 1476 1467 1460 1461 1467 1477 1475 1476 1479 1482 1486 1489 1493 1497 1499 1500 1501 1502 1504 1505 1506 1507 1508 1508 1509 1510 1510 1511 1512 1512 1512 1512 1512 1512 1512 1512 1512 1512 1512 1512 1513 1513 1514 1513 1514 1514 1515
1478 1475 1473 1470 1459 1460 1465 1470 1471 1474 1477 1480 1484 1488 1492 1495 1498 1500 1501 1503 1504 1504 1505 1507 1508 1508 1509 1510 1510 1511 1512 1512 1512 1512 1511 1511 1511 1511 1511 1512 1512 1512 1512 1512 1513 1513 1513 1513 1513
1465 1471 1471 1465 1457 1460 1465 1468 1468 1471 1474 1477 1482 1486 1490 1494 1498 1500 1502 1503 1504 1504 1505 1506 1507 1508 1509 1510 1510 1511 1511 1512 1512 1511 1511 1511 1511 1511 1511 1511 1511 1511 1511 1511 1511 1511 1512 1512 1513
1462 1468 1467 1462 1456 1461 1467 1468 1466 1469 1472 1476 1479 1484 1488 1492 1496 1499 1501 1503 1504 1504 1505 1506 1507 1508 1509 1509 1510 1511 1511 1512 1512 1511 1511 1511 1511 1511 1511 1510 1510 1511 1510 1510 1510 1511 1511 1511 1512
1462 1464 1463 1464 1459 1458 1465 1474 1468 1468 1471 1474 1477 1481 1486 1490 1494 1497 1500 1502 1503 1504 1505 1506 1507 1508 1508 1509 1510 1511 1511 1511 1512 1511 1511 1510 1510 1510 1510 1509 1510 1510 1510 1509 1510 1510 1510 1510 1511
1466 1454 1456 1459 1466 1472 1469 1488 1474 1470 1471 1472 1476 1480 1484 1488 1491 1495 1498 1501 1502 1504 1505 1506 1507 1508 1508 1509 1510 1511 1511 1511 1511 1511 1511 1510 1510 1509 1509 1509 1509 1509 1509 1508 1508 1508 1509 1509 1509
1457 1451 1455 1457 1463 1470 1468 1484 1484 1470 1473 1472 1474 1478 1482 1485 1489 1493 1496 1499 1501 1503 1505 1506 1507 1507 1508 1509 1509 1510 1511 1511 1511 1511 1511 1510 1509 1508 1508 1508 1508 1508 1507 1507 1507 1507 1507 1507 1508
1449 1453 1455 1456 1464 1485 1473 1482 1488 1472 1471 1471 1472 1477 1481 1484 1488 1491 1495 1498 1500 1503 1504 1505 1506 1507 1508 1508 1509 1509 1510 1510 1510 1510 1510 1510 1509 1508 1508 1507 1507 1506 1506 1506 1506 1506 1506 1506 1506
1451 1463 1481 1487 1489 1487 1465 1472 1478 1464 1463 1466 1471 1476 1480 1483 1487 1490 1494 1496 1499 1502 1503 1505 1505 1506 1507 1507 1508 1508 1509 1509 1509 1509 1509 1509 1508 1508 1507 1507 1506 1505 1505 1505 1505 1505 1505 1505 1505
1452 1459 1482 1496 1493 1480 1468 1476 1471 1460 1463 1466 1470 1474 1479 1482 1486 1489 1492 1495 1498 1501 1503 1504 1504 1505 1506 1506 1507 1507 1508 1508 1508 1509 1509 1508 1508 1507 1506 1506 1505 1505 1504 1504 1504 1504 1504 1503 1503
1455 1456 1451 1464 1469 1479 1476 1473 1467 1460 1463 1467 1470 1474 1478 1482 1485 1488 1492 1495 1497 1499 1501 1503 1503 1504 1505 1506 1506 1506 1507 1507 1507 1508 1508 1507 1507 1507 1505 1505 1504 1504 1503 1503 1503 1502 1502 1502 1502
1448 1449 1455 1468 1484 1490 1481 1475 1474 1469 1466 1467 1470 1473 1476 1480 1484 1487 1491 1494 1496 1498 1500 1501 1503 1503 1504 1505 1505 1506 1506 1506 1506 1506 1506 1506 1506 1505 1505 1504 1503 1503 1502 1502 1501 1501 1501 1501 1500
1452 1455 1459 1463 1469 1485 1492 1482 1458 1462 1463 1466 1469 1472 1475 1479 1482 1486 1489 1493 1495 1498 1499 1501 1502 1502 1503 1504 1504 1504 1505 1505 1505 1505 1505 1505 1504 1504 1503 1503 1502 1501 1501 1500 1500 1499 1499 1499 1499
1445 1451 1456 1471 1474 1472 1479 1481 1455 1456 1459 1464 1469 1472 1474 1478 1481 1485 1488 1491 1494 1496 1498 1500 1501 1501 1502 1502 1503 1504 1504 1504 1504 1504 1503 1503 1503 1503 1502 1502 1501 1500 1499 1499 1498 1498 1498 1497 1497